Location: Phoenix
(33.4480°N, 112.0730°W)
Time: 17:40:16
(UTC-07:00)

Cosmos 1470 Rocket - Visible Passes

Search period start: 25 July 2016 00:00
Search period end: 04 August 2016 00:00
Orbit: 605 x 634 km, 82.5° (Epoch: 25 July)

Date Brightness Start Highest point End Pass type
(mag) Time Alt. Az. Time Alt. Az. Time Alt. Az.
26 Jul 6.9 04:57:47 10° NE 05:00:17 15° ENE 05:02:45 10° ESE visible
30 Jul 6.7 04:29:25 10° NE 04:32:07 15° ENE 04:34:46 10° ESE visible
31 Jul 5.8 04:45:45 10° NNE 04:49:41 29° ENE 04:53:35 10° SE visible
01 Aug 4.3 05:02:44 10° N 05:07:10 59° E 05:11:34 10° SSE visible
03 Aug 6.5 04:01:05 10° NE 04:03:56 16° ENE 04:06:47 10° ESE visible
